www.pogodaiklimat.ru

Погода и климат >> Архив погоды >> Таиланд >> Яла Агромет


ПОГОДА в Яла Агромете

  • Прогноз погоды в Яла Агромете
  • Монитор погоды в Яла Агромете

АРХИВ ПОГОДЫ в Яла Агромете

Время (UTC), дата Ветер
(напр.,м/с)
 
Видим.   Явления Облачность Т
(С)
Тd
(С)
f
(%)
Тe
(С)
Тes
(С)
Комфортность P
(гПа)
Po
(гПа)
Тmin
(С)
Tmax
(С)
R
(мм)
R24
(мм)
S
(см)
03 14.09 штиль 0 10 км 9/3 600 м
[Cu hum Ac lent Cs]
+31.0 +23.3 64 +42 +50 опасность
перегрева
1011.8 1007.7
06 14.09 ЮЗ 8 10 км 9/3 600 м
[Cu hum Ac lent Cs]
+32.2 +22.7 57 +42 +43 опасность
перегрева
1009.3 1005.2
09 14.09 штиль 0 7000 м в посл. час дождь 10/3 600 м
[Sc Ac As Cs]
+25.1 +24.1 94 +35 +38 очень
душно
1009.2 1005.1 10
12 14.09 штиль 0 6000 м дымка {дождь} 8/3 600 м
[Sc Ac trans Cs]
+24.9 +23.0 89 +33 +33 очень
душно
1010.2 1006.1 +32.6 10
15 14.09 штиль 0 6000 м дымка 8/3 600 м
[Cu hum Ac lent Ci sp]
+24.6 +22.8 90 +33 +33 очень
душно
1012.1 1007.9
18 14.09 штиль 0 6000 м дымка 9/3 600 м
[Cu hum Ac As Cs]
+24.1 +23.2 95 +32 +32 очень
душно
1010.7 1006.5
21 14.09 штиль 0 6000 м дымка 10/3 600 м
[Sc Ac As Cs]
+23.7 +23.1 96 +31 +31 очень
душно
1010.1 1005.9
00 15.09 штиль 0 6000 м дымка 10/3 600 м
[Sc Ac As Cs]
+24.1 +23.1 94 +32 +32 очень
душно
1010.6 1006.4 +23.6
03 15.09 ЮЗ 3 9000 м дымка 10/3 600 м
[Cu med, cong Ac und Cs]
+29.5 +23.9 72 +41 +45 опасность
перегрева
1011.6 1007.5
06 15.09 З 5 9000 м дымка 10/3 600 м
[Sc Ac As Cs]
+31.7 +24.3 65 +44 +48 опасность
перегрева
1008.9 1004.8
09 15.09 З 9 10 км в посл. час дождь 10/3 600 м
[Sc Ac As Cs]
+26.8 +23.1 80 +36 +36 очень
душно
1007.1 1003.0 2
12 15.09 штиль 0 6000 м гроза, ливневой дождь 10/4 300 м
[Cb cap Ac As Cs]
+23.1 +22.3 95 +32 +32 очень
душно
1011.3 1007.1 +32.5 34
15 15.09 штиль 0 6000 м дымка {дождь} 10/3 600 м
[Sc Ac As Cs]
+22.8 +21.6 93 +30 +30 очень
душно
1011.2 1007.0 0.4
18 15.09 З 2 6000 м дымка {дождь} 10/3 600 м
[Sc Ac As Cs]
+22.5 +21.4 94 +30 +30 очень
душно
1009.5 1005.3 36
21 15.09 ЮЗ 6 6000 м дымка 10/3 600 м
[Sc Ac und Cs]
+22.9 +22.1 95 +31 +31 очень
душно
1008.8 1004.6
00 16.09 З 4 8000 м дымка 10/3 600 м
[Sc Ac trans Cs]
+23.4 +22.3 94 +32 +32 очень
душно
1009.7 1005.5 +22.5
03 16.09 ЮЗ 4 8000 м дымка 10/3 600 м
[Sc Ac As Cs]
+29.0 +23.0 70 +39 +42 очень
душно
1011.3 1007.2
06 16.09 ЮЗ 6 10 км 10/3 600 м
[Sc Ac As Cs]
+32.4 +23.1 58 +43 +46 опасность
перегрева
1008.9 1004.8
09 16.09 ЮЗ 4 9000 м дымка 10/3 600 м
[Sc Ac As Cs]
+29.9 +23.7 69 +41 +42 опасность
перегрева
1007.0 1002.9
12 16.09 З 3 8000 м дымка 10/3 600 м
[Sc Ac As Cs]
+27.0 +23.3 80 +36 +36 очень
душно
1008.3 1004.1 +32.6
15 16.09 штиль 0 8000 м дымка 10/3 600 м
[Sc Ac As Cs]
+25.5 +23.3 88 +34 +34 очень
душно
1010.5 1006.4
18 16.09 ЮЗ 4 7000 м дымка 10/1 600 м
[Cu hum Ac lent Cs]
+24.9 +22.8 88 +33 +33 очень
душно
1009.3 1005.2
21 16.09 ЮЗ 6 7000 м дымка 8/1 600 м
[Cu hum Ac lent Cs]
+24.3 +23.0 92 +32 +32 очень
душно
1008.8 1004.6
00 17.09 штиль 0 8000 м дымка 8/1 600 м
[Cu hum Ac lent Cs]
+24.2 +23.2 94 +32 +33 очень
душно
1010.2 1006.0 +23.7
03 17.09 ЮЗ 3 10 км 9/3 600 м
[Cu med, cong Ac trans Cs]
+30.5 +24.0 68 +42 +47 опасность
перегрева
1011.7 1007.6
06 17.09 З 6 10 км 8/3 600 м
[Cu med, cong Ac trans Cs]
+32.6 +22.0 54 +41 +45 опасность
перегрева
1009.4 1005.3
09 17.09 З 6 10 км 8/3 600 м
[Cu hum Ac trans Ci sp]
+33.6 +22.6 53 +43 +44 опасность
перегрева
1007.4 1003.3
12 17.09 штиль 0 10 км 8/3 600 м
[Cu hum Ac trans Cs]
+29.1 +23.4 71 +39 +39 очень
душно
1009.6 1005.5 +33.6
15 17.09 штиль 0 8000 м дымка 6/3 600 м
[Cu hum Ac trans Ci sp]
+26.7 +24.2 86 +37 +37 очень
душно
1010.8 1006.7
18 17.09 штиль 0 6000 м дымка 6/3 600 м
[Cu hum Ac trans Ci sp]
+26.0 +23.8 88 +36 +36 очень
душно
1010.6 1006.5
21 17.09 штиль 0 5000 м дымка 9/3 600 м
[Sc Ac As Cs]
+25.0 +23.5 91 +34 +34 очень
душно
1009.9 1005.8
00 18.09 штиль 0 4000 м дымка 10/3 600 м
[Sc Ac As Cs]
+24.8 +23.8 94 +34 +34 очень
душно
1011.1 1006.9 +24.4
03 18.09 штиль 0 5000 м дымка 10/3 600 м
[Cu med, cong Ac As Cs]
+28.7 +24.8 79 +41 +48 опасность
перегрева
1012.3 1008.2
06 18.09 ЮВ 2 6000 м мгла 10/3 600 м
[Cu med, cong Ac As Cs]
+33.0 +22.9 55 +43 +50 опасность
перегрева
1009.9 1005.9
09 18.09 З 3 5000 м гроза без осадков 10/3 600 м
[Cb cap Ac As Cs]
+26.5 +21.9 76 +34 +36 очень
душно
1009.7 1005.5
12 18.09 штиль 0 5000 м дымка {гроза} 9/3 600 м
[Sc Ac As Cs]
+24.8 +23.5 92 +33 +33 очень
душно
1011.0 1006.8 +33.6
15 18.09 штиль 0 6000 м дымка 8/3 600 м
[Cu hum Ac lent Cs]
+24.7 +23.4 92 +33 +33 очень
душно
1013.1 1008.9
18 18.09 штиль 0 5000 м дымка 8/3 600 м
[Cu hum Ac lent Cs]
+24.4 +23.5 95 +33 +33 очень
душно
1012.3 1008.2
21 18.09 штиль 0 4000 м дымка 10/3 600 м
[Sc Ac As Cs]
+23.9 +23.3 96 +32 +32 очень
душно
1011.2 1007.0
00 19.09 штиль 0 4000 м дымка 10/3 600 м
[Sc Ac As Cs]
+24.2 +23.3 95 +32 +33 очень
душно
1011.9 1007.7 +23.7
03 19.09 штиль 0 4000 м дымка 10/3 600 м
[Cu med, cong Ac As Cs]
+27.6 +24.6 84 +39 +46 очень
душно
1012.8 1008.6
06 19.09 З 3 1000 м дым 10/3 600 м
[Cu med, cong Ac As Cs]
+33.0 +24.0 59 +45 +51 опасность
перегрева
1010.1 1006.0
09 19.09 З 3 2000 м гроза, ливневой дождь 10/4 300 м
[Cb cap Ac As Cs]
+27.5 +24.2 82 +38 +40 очень
душно
1009.1 1004.9 0.0
12 19.09 В 3 5000 м дымка {гроза, дождь} 10/3 600 м
[Sc Ac As Cs]
+25.0 +23.5 91 +34 +34 очень
душно
1010.7 1006.5 +33.8 0.4
15 19.09 ЮЗ 2 4000 м дымка 10/3 600 м
[Sc Ac As Cs]
+24.2 +23.3 95 +32 +32 очень
душно
1012.1 1008.0
18 19.09 ЮЗ 2 2000 м дымка 10/3 600 м
[Sc Ac As Cs]
+23.8 +23.1 96 +32 +32 очень
душно
1011.3 1007.1
21 19.09 ЮЗ 2 2000 м дымка 10/3 600 м
[Cu hum Ac As Cs]
+23.6 +23.3 98 +32 +32 очень
душно
1010.0 1005.8
00 20.09 ЮВ 2 600 м туман ?/? +23.7 +23.4 98 +32 +32 очень
душно
1011.9 1007.7 +23.4
03 20.09 ЮЗ 6 2000 м дым {туман} 10/3 600 м
[Cu med, cong Ac lent Cs]
+27.7 +24.4 82 +39 +41 очень
душно
1012.7 1008.6
06 20.09 Ю 4 4000 м мгла {туман} 10/4 600 м
[Cu med, cong Ac lent Cs]
+32.4 +23.1 58 +43 +47 опасность
перегрева
1009.7 1005.6
09 20.09 ЮЗ 2 4000 м дымка 10/3 600 м
[Sc Ac lent Cs]
+30.7 +25.2 73 +45 +47 опасность
перегрева
1007.9 1003.8
12 20.09 штиль 0 4000 м дымка 8/3 600 м
[Sc Ac lent Cs]
+28.1 +25.4 85 +41 +41 опасность
перегрева
1009.4 1005.3 +32.8
15 20.09 В 2 4000 м дымка 10/3 600 м
[Cu med, cong Ac lent Cs]
+25.6 +24.1 91 +35 +35 очень
душно
1010.9 1006.8
18 20.09 штиль 0 4000 м дымка 10/3 600 м
[Cu med, cong Ac lent Cs]
+24.5 +23.6 95 +33 +33 очень
душно
1010.0 1005.9
21 20.09 ЮЗ 2 4000 м дымка 8/1 600 м
[Cu hum Ac lent Cs]
+23.9 +23.5 98 +32 +32 очень
душно
1008.7 1004.6
00 21.09 штиль 0 800 м туман 8/1 600 м
[Cu hum Ac lent Cs]
+24.2 +23.6 96 +33 +33 очень
душно
1010.3 1006.1 +23.6

 

Местоположение метеостанции Яла Агромет (Таиланд): широта 6.52 долгота 101.28 высота над уровнем моря 36 м.

В архиве по умолчанию представлена погода в Яла Агромете за последнюю неделю. Архивные данные за месяц целиком и за предыдущие месяцы, начиная с января 2011 года, Вы можете получить, выбрав интересующий диапазон дат из раскрывающегося списка и нажав кнопку "Ввод!".


*Определитесь, кто Вы:
робот инопланетянин человек

Внимание! Время в таблицах - всемирное. Для получения местного времени необходимо прибавить поправку, которая равна 7 ч.

Смотрите также архив погоды в соседних городах и на ближайших метеорологических станциях:

Погода в Паттани (Таиланд) (32 км)
Погода в Наратхивате (Таиланд) (60 км)
Погода в Садао (Таиланд) (102 км)
Погода в Алор Стар (Малайзия) (104 км)
Погода в Хатъяе (Таиланд) (104 км)
Погода в Сонгкхле (Таиланд) (106 км)
Погода в Кота-Бхару (Малайзия) (117 км)
Погода в Сатуне (Таиланд) (133 км)
Погода в Хо Хонг Агромете (Таиланд) (133 км)
Погода на Авиабазе Баттерворт (Малайзия) (153 км)

Пояснения к столбцам:

Ветер - указаны скорость ветра в м/с - средняя за 10 мин, порывы в срок и между сроками (в фигурных скобках) и направление, откуда дует ветер: С - северный, СВ - северо-восточный, В - восточный, ЮВ - юго-восточный, Ю - южный, ЮЗ - юго-западный, З - западный, СЗ - северо-западный.
Видимость - горизонтальная дальность видимости в метрах или километрах. При видимости от 1 до 10 км при отсутствии осадков обычно наблюдается дымка, при ухудшении видимости до 1 км и менее - туман. В сухую погоду видимость может ухудшаться дымом, пылью или мглою.
Явления - указаны атмосферные явления, наблюдавшиеся в срок или в последний час перед сроком; фигурными скобками обозначены явления, наблюдавшиеся между сроками (за 1-3 часа до срока); квадратными скобками обозначены град или гололедные отложения с указанием их диаметра в мм.
Облачность - указаны через наклонную черту общая и нижняя облачность в баллах и высота нижней границы облаков в метрах; квадратными скобками обозначены формы облаков: Ci - перистые, Cs - перисто-слоистые, Cc - перисто-кучевые, Ac - высококучевые, As - высокослоистые, Sc - слоисто-кучевые, Ns - слоисто-дождевые, Cu - кучевые, Cb - кучево-дождевые. Подробнее классификацию облаков см. в Атласе облаков (PDF).
T - Температура воздуха - температура, измеренная на высоте 2 м над землей.
Td - Температура точки росы - температура, при понижении до которой содержащийся в воздухе водяной пар достигнет насыщения.
f - Относительная влажность воздуха - влажноcть воздуха, измеренная на высоте 2 м над землей.
Te - Эффективная температура - температура, которую ощущает одетый по сезону человек в тени. Характеристика душности погоды. При расчете учитывается влияние влажности воздуха и скорости ветра на теплоощущения человека.
Tes - Эффективная температура на солнце - температура, которую ощущает человек, с поправкой на солнечный нагрев. Характеристика знойности погоды. Зависит от высоты солнца над горизонтом, облачности и скорости ветра. Ночью, в пасмурную погоду, а также при ветре 12 м/с и более поправка равна нулю.
P - Атмосферное давление - приведенное к уровню моря атмосферное давление.
Po - Атмосферное давление - измеренное на уровне метеостанции атмосферное давление.
Tmin - Минимальная температура - минимум температуры воздуха на высоте 2 м над землей.
Tmax - Максимальная температура - максимум температуры воздуха на высоте 2 м над землей.
R - Количество осадков - Количество выпавших осадков за период времени, мм. При наведении курсора мыши на число - период времени, за который выпало указанное количество осадков.
R24 - Количество осадков - Количество выпавших осадков за 24 часа, мм.
S - Снежный покров - Высота снежного покрова, см. При наведении курсора мыши на число - состояние снежного покрова и степень покрытия местности в баллах.